Location: Diebersbach
(48.5163°N, 8.0558°E)
Time: 01:36:11
(UTC+00:00)

Cosmos 1825 - Pass Details

Date: 28 October 2021
Orbit: 501 x 504 km, 82.5° (Epoch: 01 December)

Event Time Altitude Azimuth Distance (km) Brightness Sun altitude
Rises 18:14:03 0° 348° (NNW) 2,610 6.0 -20.3°
Reaches altitude 10° 18:16:11 10° 346° (NNW) 1,721 5.0 -20.6°
Maximum altitude 18:19:56 71° 263° (W) 535 2.3 -21.3°
Enters shadow 18:22:44 17° 181° (S) 1,331 4.2 -21.7°
